Terminal Aerodrome Forecast
Issued by NWS Austin/San Antonio, TX

Home | Current Version | Previous Version | Text Only | Print | Product List | Glossary On
Versions: 1 2 3 4 5 6 7 8 9 10 11 12 13 14 15 16
000
FTUS44 KEWX 290800 AAA
TAFAUS
TAF AMD
KAUS 290829Z 2908/3012 16003KT P6SM FEW015 SCT250
     FM290900 15003KT P6SM BKN015
     FM291700 16007KT P6SM BKN035
     FM291900 15012KT P6SM BKN050
     FM300200 15005KT P6SM BKN030
     FM300700 VRB02KT P6SM BKN020=

USA.gov is the U.S. government's official web portal to all federal, state and local government web resources and services.